Location: eljas
(40.1958°N, 6.8661°W)
Time: 02:12:25
(UTC+02:00)

Amateur Radio Satellites - All Passes

Search period start: 02 July 2016 01:42
Search period end: 03 July 2016 01:42
Location: eljas, 40.1958°N, 6.8661°W

Satellite Date Start Highest point End Downlink Frequencies (MHz)
Time Altitude Azimuth
JAS-2 02 Jul 01:43:13 01:44:17 11° 87° (E) 01:45:21 435.910
ANTELSAT 02 Jul 01:45:29 01:49:29 28° 291° (WNW) 01:53:28 437.575/2403.000
UKube-1 02 Jul 01:46:56 01:51:14 83° 255° (WSW) 01:55:35 .
Cosmos 2504 02 Jul 01:51:43 01:59:49 38° 72° (ENE) 02:07:31 435.465 / 435.565
AISAT 02 Jul 02:06:29 02:10:21 30° 263° (W) 02:14:13 437.250
Cosmos 2491 02 Jul 02:07:50 02:16:32 73° 94° (E) 02:25:14 435.465 / 435.565
NANOSAT C BR1 02 Jul 02:09:32 02:13:48 87° 284° (WNW) 02:18:04 145.865
DX 1 02 Jul 02:14:00 02:17:54 33° 262° (W) 02:21:50 434.975-435.025
QB50P1 02 Jul 02:14:36 02:18:51 72° 285° (WNW) 02:23:06 145.935-145.965
ESTCUBE 1 02 Jul 02:18:00 02:20:51 16° 268° (W) 02:23:44 437.505/2401.250
POPSAT HIP 1 02 Jul 02:18:11 02:22:25 67° 286° (WNW) 02:26:40 437.405
DUCHIFAT 1 02 Jul 02:28:29 02:32:39 56° 286° (WNW) 02:36:48 145.980
QB50P2 02 Jul 02:31:35 02:35:38 43° 288° (WNW) 02:39:41 145.880/145.840
POLYITAN 1 02 Jul 02:34:14 02:38:16 42° 288° (WNW) 02:42:20 437.675
PCSat 02 Jul 02:36:49 02:41:45 37° 110° (ESE) 02:46:43 145.827
BEESAT 3 02 Jul 02:42:07 02:45:11 22° 112° (ESE) 02:48:16 437.485
CUBEBUG 1 02 Jul 02:47:03 02:48:21 11° 270° (W) 02:49:39 437.445
TISAT 1 02 Jul 02:49:16 02:53:24 83° 78° (ENE) 02:57:36 437.305
Oscar 19 02 Jul 02:50:03 02:53:22 17° 92° (E) 02:56:40 437.125/150
SO-50 02 Jul 02:51:26 02:55:01 23° 249° (WSW) 02:58:31 436.795
YUBILEINY 02 Jul 02:55:25 03:03:01 34° 276° (W) 03:10:37 435.215
O/OREOS (USA 219) 02 Jul 03:01:37 03:05:05 22° 102° (ESE) 03:08:34 437.305
BUGSAT 1 02 Jul 03:09:54 03:13:47 41° 288° (WNW) 03:17:42 437.445
SWISSCUBE 02 Jul 03:20:24 03:24:48 38° 70° (ENE) 03:29:15 437.505
SPROUT 02 Jul 03:20:52 03:22:20 11° 270° (W) 03:23:47 437.525
JAS-2 02 Jul 03:24:42 03:30:14 80° 285° (WNW) 03:35:24 435.910
BEESAT 2 02 Jul 03:26:21 03:30:01 37° 116° (ESE) 03:33:42 435.950
Gurwin Techsat 1B 02 Jul 03:34:49 03:38:44 21° 93° (E) 03:42:39 435.225
BEESAT 02 Jul 03:44:55 03:49:37 61° 73° (ENE) 03:54:21 436.000
Cosmos 2504 02 Jul 03:45:00 03:53:21 48° 272° (W) 04:01:17 435.465 / 435.565
ITUPSAT 1 02 Jul 03:48:18 03:53:03 65° 74° (ENE) 03:57:51 437.325
Cosmos 2491 02 Jul 04:07:28 04:14:11 24° 294° (WNW) 04:20:57 435.465 / 435.565
BEESAT 3 02 Jul 04:19:12 04:22:42 30° 309° (NW) 04:26:14 437.485
PCSat 02 Jul 04:20:20 04:25:10 32° 308° (NW) 04:30:01 145.827
Oscar 19 02 Jul 04:28:00 04:33:00 54° 288° (WNW) 04:37:59 437.125/150
O/OREOS (USA 219) 02 Jul 04:40:13 04:44:16 33° 298° (WNW) 04:48:21 437.305
AIST 2 02 Jul 04:40:42 04:42:17 12° 108° (ESE) 04:43:53 435.215
ITAMSAT 1 02 Jul 04:58:22 05:03:21 43° 99° (E) 05:08:18 435.822/435.867
SWISSCUBE 02 Jul 04:59:00 05:02:42 22° 266° (W) 05:06:25 437.505
GONETS M04 02 Jul 05:02:53 05:06:22 13° 58° (ENE) 05:09:51
BEESAT 2 02 Jul 05:04:58 05:07:58 20° 313° (NW) 05:11:00 435.950
KKS-1 02 Jul 05:12:54 05:17:15 59° 74° (ENE) 05:21:36 437.445
Gurwin Techsat 1B 02 Jul 05:13:49 05:18:56 48° 289° (WNW) 05:24:00 435.225
BEESAT 02 Jul 05:25:26 05:27:47 14° 269° (W) 05:30:10 436.000
ITUPSAT 1 02 Jul 05:29:11 05:31:19 13° 269° (W) 05:33:28 437.325
MOZHAYETS 4 02 Jul 05:29:16 05:33:53 80° 76° (ENE) 05:38:33
AIST 1 02 Jul 05:32:19 05:36:34 69° 81° (E) 05:40:48
CUBESAT XI-V 02 Jul 05:33:42 05:34:51 11° 61° (ENE) 05:35:59 437.345
STARS 02 Jul 05:35:12 05:39:25 51° 73° (ENE) 05:43:39 437.465
AO-7 02 Jul 05:41:04 05:48:59 44° 100° (E) 05:56:50 29.400- 29.500
AIST 2 02 Jul 06:16:11 06:20:15 60° 304° (NW) 06:24:21 435.215
Cosmos 2499 02 Jul 06:17:43 06:24:51 27° 67° (ENE) 06:31:36 435.465 / 435.565
PHONESAT 2.4 02 Jul 06:24:58 06:27:13 19° 151° (SSE) 06:29:28 2401.200-2431.200
HORYU 2 02 Jul 06:30:25 06:33:46 20° 94° (E) 06:37:06 437.375
ITAMSAT 1 02 Jul 06:38:27 06:42:32 23° 295° (WNW) 06:46:35 435.822/435.867
AO-85 02 Jul 06:42:10 06:46:18 33° 49° (NE) 06:50:06 145.980
KKS-1 02 Jul 06:52:29 06:54:11 12° 269° (W) 06:55:53 437.445
GONETS M04 02 Jul 06:56:20 07:05:03 67° 80° (E) 07:13:46
CUBESAT XI-V 02 Jul 07:06:49 07:11:32 83° 259° (WSW) 07:16:14 437.345
STARS 02 Jul 07:13:53 07:16:04 14° 268° (W) 07:18:16 437.465
CUSAT 1 02 Jul 07:22:41 07:26:58 17° 87° (E) 07:30:52 437.405
Cubesat XI-IV 02 Jul 07:33:56 07:36:50 14° 90° (E) 07:39:42 437.490
AO-7 02 Jul 07:33:57 07:41:39 43° 298° (WNW) 07:49:20 29.400- 29.500
NOAA 18 02 Jul 07:57:25 08:02:04 27° 96° (E) 08:06:41 137.9125
PHONESAT 2.4 02 Jul 08:00:28 08:03:30 68° 167° (SSE) 08:06:33 2401.200-2431.200
ISS 02 Jul 08:03:33 08:05:28 15° 130° (SE) 08:07:23 145.825
CUTE-I 02 Jul 08:05:40 08:10:21 30° 96° (E) 08:15:00 437.470
HORYU 2 02 Jul 08:06:17 08:10:26 36° 290° (WNW) 08:14:32 437.375
Cosmos 2499 02 Jul 08:10:04 08:18:40 65° 268° (W) 08:26:40 435.465 / 435.565
DANDE 02 Jul 08:17:22 08:23:54 26° 87° (E) 08:29:56 436.750
BRITE-PL 02 Jul 08:19:11 08:23:17 54° 100° (E) 08:27:27 437.365/2234.400
STRAND 1 02 Jul 08:20:18 08:25:06 42° 70° (ENE) 08:29:57 437.568
NOAA 15 02 Jul 08:21:11 08:26:22 57° 101° (E) 08:31:30 137.62
AO-85 02 Jul 08:23:01 08:26:33 24° 249° (WSW) 08:29:51 145.980
GOMX 1 02 Jul 08:33:31 08:37:26 34° 98° (E) 08:41:31 467.674
HO-68 02 Jul 08:54:22 08:56:46 12° 87° (E) 08:59:09 435.675
GONETS M04 02 Jul 08:54:26 09:01:04 25° 279° (W) 09:07:44
LilacSat-2 02 Jul 08:55:02 08:58:56 77° 283° (WNW) 09:02:49 437.200
CUSAT 1 02 Jul 09:00:57 09:08:36 85° 279° (W) 09:14:51 437.405
Cubesat XI-IV 02 Jul 09:12:01 09:17:23 69° 286° (WNW) 09:22:42 437.490
DOVE 4 02 Jul 09:14:23 09:18:38 44° 99° (E) 09:23:07 437.250
CANX-2 02 Jul 09:32:30 09:35:32 19° 93° (E) 09:38:32 2200.000
PHONESAT 2.4 02 Jul 09:37:03 09:40:07 83° 6° (N) 09:43:11 2401.200-2431.200
NOAA 18 02 Jul 09:37:38 09:42:48 40° 292° (WNW) 09:47:56 137.9125
ISS 02 Jul 09:38:22 09:41:35 57° 326° (NW) 09:44:48 145.825
CINEMA 3 02 Jul 09:42:27 09:46:25 27° 96° (E) 09:50:30 145.822/145.860
CUTE-I 02 Jul 09:45:33 09:50:23 35° 292° (WNW) 09:55:11 437.470
SEEDS 02 Jul 09:48:48 09:51:38 17° 93° (E) 09:54:26 437.485
CUTE 1.7 + AOD 2 02 Jul 09:51:17 09:54:53 26° 95° (E) 09:58:27 437.475
DANDE 02 Jul 09:57:55 10:06:17 68° 281° (W) 10:13:45 436.750
BRITE-PL 02 Jul 09:59:42 10:01:21 12° 296° (WNW) 10:03:02 437.365/2234.400
STRAND 1 02 Jul 10:00:25 10:04:25 23° 266° (W) 10:08:28 437.568
NOAA 15 02 Jul 10:02:08 10:05:40 19° 298° (WNW) 10:09:12 137.62
PRISM 02 Jul 10:03:59 10:08:07 71° 74° (ENE) 10:12:14 437.425
Cosmos 2499 02 Jul 10:08:21 10:09:50 11° 288° (WNW) 10:11:19 435.465 / 435.565
GOMX 1 02 Jul 10:12:13 10:15:21 20° 292° (WNW) 10:18:34 467.674
AAUSAT CUBESAT 2 02 Jul 10:16:39 10:19:42 19° 93° (E) 10:22:43 437.432
HO-68 02 Jul 10:38:18 10:45:32 77° 105° (ESE) 10:52:44 435.675
CUSAT 1 02 Jul 10:47:21 10:51:06 15° 292° (WNW) 10:54:33 437.405
CUBEBUG 2 02 Jul 10:50:04 10:54:31 43° 98° (E) 10:59:02 437.445
DOVE 4 02 Jul 10:53:08 10:56:03 17° 293° (WNW) 10:59:03 437.250
COMPASS 1 02 Jul 10:53:47 10:57:58 69° 100° (E) 11:02:06 437.405
ZACube-1 02 Jul 10:59:48 11:03:33 25° 95° (E) 11:07:19 437.345
BEESAT 3 02 Jul 11:00:01 11:02:13 14° 43° (NE) 11:04:26 437.485
Oscar 11 02 Jul 11:02:08 11:05:47 26° 95° (E) 11:09:25 145.826/435.025
AUBIESAT-1 02 Jul 11:05:13 11:08:26 22° 101° (E) 11:11:49 437.475
ANTELSAT 02 Jul 11:07:33 11:10:57 23° 67° (ENE) 11:14:26 437.575/2403.000
CANX-2 02 Jul 11:07:34 11:11:30 35° 289° (WNW) 11:15:22 2200.000
RS-15 02 Jul 11:09:43 11:17:03 20° 98° (E) 11:24:33 29.354- 29.394
PHONESAT 2.4 02 Jul 11:13:42 11:16:39 44° 200° (SSW) 11:19:35 2401.200-2431.200
FUNcube-1 02 Jul 11:14:53 11:19:02 33° 97° (E) 11:23:09 145.935
ISS 02 Jul 11:16:34 11:18:34 15° 345° (NNW) 11:20:34 145.825
CINEMA 3 02 Jul 11:19:28 11:23:30 30° 290° (WNW) 11:27:40 145.822/145.860
SEEDS 02 Jul 11:23:33 11:27:28 37° 288° (WNW) 11:31:20 437.485
PCSat 02 Jul 11:25:03 11:29:45 29° 50° (NE) 11:34:25 145.827
CUTE 1.7 + AOD 2 02 Jul 11:27:06 11:30:38 26° 291° (WNW) 11:34:08 437.475
UWE-3 02 Jul 11:29:05 11:33:43 78° 102° (ESE) 11:38:24 435.000/436.395/437.385
DELFI C3 02 Jul 11:30:41 11:33:52 22° 95° (E) 11:37:00 145.870
HUMSAT D 02 Jul 11:39:48 11:42:09 14° 91° (E) 11:44:27 437.325/437.525
BEESAT 2 02 Jul 11:45:04 11:48:12 21° 47° (NE) 11:51:18 435.950
DANDE 02 Jul 11:46:16 11:50:07 14° 297° (WNW) 11:53:47 436.750
M-CUBED/EXP-1 PRIME 02 Jul 11:47:18 11:51:20 82° 107° (ESE) 11:55:41 437.505
QB50P2 02 Jul 11:50:40 11:52:04 11° 63° (ENE) 11:53:29 145.880/145.840
AAUSAT CUBESAT 2 02 Jul 11:51:32 11:55:14 32° 289° (WNW) 11:58:55 437.432
POLYITAN 1 02 Jul 11:53:11 11:54:42 12° 63° (ENE) 11:56:12 437.675
TIGRISAT 02 Jul 11:56:53 12:01:10 75° 76° (ENE) 12:05:36 435.000
UNISAT 6 02 Jul 12:03:21 12:07:40 87° 255° (WSW) 12:12:08 437.425
Cosmos 2491 02 Jul 12:19:17 12:27:04 35° 71° (ENE) 12:34:49 435.465 / 435.565
HO-68 02 Jul 12:27:20 12:32:30 22° 303° (WNW) 12:37:39 435.675
CUBEBUG 2 02 Jul 12:27:29 12:30:49 20° 294° (WNW) 12:34:12 437.445
BUGSAT 1 02 Jul 12:27:37 12:27:50 10° 62° (ENE) 12:28:03 437.445
COMPASS 1 02 Jul 12:32:08 12:32:56 10° 297° (WNW) 12:33:44 437.405
ZACube-1 02 Jul 12:35:47 12:39:49 31° 290° (WNW) 12:43:52 437.345
BEESAT 3 02 Jul 12:36:23 12:40:18 62° 241° (WSW) 12:44:11 437.485
Oscar 11 02 Jul 12:38:11 12:41:51 27° 291° (WNW) 12:45:29 145.826/435.025
AUBIESAT-1 02 Jul 12:39:17 12:42:54 32° 293° (WNW) 12:46:43 437.475
ANTELSAT 02 Jul 12:43:39 12:47:29 31° 264° (W) 12:51:26 437.575/2403.000
FUNcube-1 02 Jul 12:51:27 12:55:05 24° 292° (WNW) 12:58:43 145.935
PHONESAT 2.4 02 Jul 12:52:12 12:52:45 10° 214° (SW) 12:53:19 2401.200-2431.200
ISS 02 Jul 12:54:52 12:56:05 12° 5° (N) 12:57:20 145.825
CUBEBUG 1 02 Jul 12:58:43 13:00:11 11° 91° (E) 13:01:39 437.445
NANOSAT C BR1 02 Jul 13:00:49 13:04:56 62° 75° (ENE) 13:09:06 145.865
DELFI C3 02 Jul 13:05:21 13:08:40 25° 290° (WNW) 13:11:56 145.870
QB50P1 02 Jul 13:06:08 13:10:18 77° 76° (ENE) 13:14:31 145.935-145.965
UWE-3 02 Jul 13:08:02 13:09:32 11° 298° (WNW) 13:11:02 435.000/436.395/437.385
PCSat 02 Jul 13:08:11 13:13:16 42° 249° (WSW) 13:18:20 145.827
POPSAT HIP 1 02 Jul 13:09:44 13:13:55 83° 74° (ENE) 13:18:08 437.405
O/OREOS (USA 219) 02 Jul 13:11:04 13:15:18 39° 63° (ENE) 13:19:31 437.305
HUMSAT D 02 Jul 13:13:51 13:18:01 48° 287° (WNW) 13:22:08 437.325/437.525
RS-15 02 Jul 13:16:06 13:27:29 84° 119° (ESE) 13:39:34 29.354- 29.394
VELOX 1 02 Jul 13:16:13 13:19:06 17° 93° (E) 13:21:58 145.980
DUCHIFAT 1 02 Jul 13:19:22 13:23:32 84° 259° (W) 13:27:44 145.980
BEESAT 2 02 Jul 13:22:27 13:26:07 35° 245° (WSW) 13:29:46 435.950
QB50P2 02 Jul 13:23:10 13:27:19 63° 258° (WSW) 13:31:31 145.880/145.840
POLYITAN 1 02 Jul 13:25:49 13:29:57 62° 259° (WSW) 13:34:09 437.675
SPROUT 02 Jul 13:31:44 13:31:55 10° 90° (E) 13:32:05 437.525
JAS-2 02 Jul 13:34:15 13:41:18 46° 70° (ENE) 13:47:43 435.910
UKube-1 02 Jul 13:35:43 13:38:29 17° 93° (E) 13:41:14 .
AISAT 02 Jul 13:56:28 14:00:45 50° 100° (E) 14:05:01 437.250
YUBILEINY 02 Jul 13:57:53 14:06:22 61° 91° (E) 14:14:57 435.215
BUGSAT 1 02 Jul 13:58:40 14:02:39 66° 259° (W) 14:06:39 437.445
DX 1 02 Jul 14:02:13 14:06:19 41° 99° (E) 14:10:25 434.975-435.025
Oscar 19 02 Jul 14:06:09 14:10:16 25° 66° (ENE) 14:14:23 437.125/150
ESTCUBE 1 02 Jul 14:08:58 14:13:28 75° 284° (WNW) 14:17:55 437.505/2401.250
50 SAT 02 Jul 14:15:27 14:19:09 83° 283° (WNW) 14:22:48 437.505
Cosmos 2491 02 Jul 14:15:51 14:24:07 51° 271° (W) 14:32:24 435.465 / 435.565
Cosmos 2504 02 Jul 14:29:28 14:36:20 30° 83° (E) 14:43:32 435.465 / 435.565
ISS 02 Jul 14:30:39 14:33:26 25° 25° (NNE) 14:36:13 145.825
CUBEBUG 1 02 Jul 14:32:34 14:36:50 59° 286° (WNW) 14:41:05 437.445
TISAT 1 02 Jul 14:35:19 14:37:22 13° 92° (E) 14:39:25 437.305
AIST 2 02 Jul 14:37:55 14:42:05 72° 57° (ENE) 14:46:13 435.215
NANOSAT C BR1 02 Jul 14:40:38 14:41:04 10° 270° (W) 14:41:31 145.865
O/OREOS (USA 219) 02 Jul 14:51:16 14:54:22 19° 259° (W) 14:57:29 437.305
VELOX 1 02 Jul 14:51:36 14:55:44 41° 289° (WNW) 14:59:52 145.980
AO-7 02 Jul 14:52:55 14:56:15 13° 45° (NE) 14:59:34 29.400- 29.500
Gurwin Techsat 1B 02 Jul 14:55:07 14:59:46 32° 67° (ENE) 15:04:25 435.225
SPROUT 02 Jul 15:04:00 15:08:16 66° 285° (WNW) 15:12:31 437.525
UKube-1 02 Jul 15:10:38 15:14:42 41° 289° (WNW) 15:18:44 .
JAS-2 02 Jul 15:19:37 15:26:20 35° 263° (W) 15:32:33 435.910
SO-50 02 Jul 15:25:39 15:28:26 15° 108° (ESE) 15:31:11 436.795
RS-15 02 Jul 15:31:11 15:41:30 35° 325° (NW) 15:52:19 29.354- 29.394
AISAT 02 Jul 15:34:15 15:36:49 15° 296° (WNW) 15:39:22 437.250
DX 1 02 Jul 15:39:18 15:42:12 18° 295° (WNW) 15:45:05 434.975-435.025
Oscar 19 02 Jul 15:44:34 15:49:22 39° 262° (W) 15:54:10 437.125/150
BEESAT 02 Jul 15:46:51 15:49:49 16° 92° (E) 15:52:45 436.000
ITUPSAT 1 02 Jul 15:50:31 15:53:41 17° 93° (E) 15:56:49 437.325
YUBILEINY 02 Jul 15:56:24 16:03:41 29° 291° (WNW) 16:11:05 435.215
ISS 02 Jul 16:06:51 16:09:59 45° 223° (SW) 16:13:07 145.825
TISAT 1 02 Jul 16:09:13 16:13:17 49° 287° (WNW) 16:17:22 437.305
ITAMSAT 1 02 Jul 16:15:37 16:20:45 63° 73° (ENE) 16:25:57 435.822/435.867
Cosmos 2504 02 Jul 16:21:05 16:29:08 57° 283° (WNW) 16:37:44 435.465 / 435.565
Gurwin Techsat 1B 02 Jul 16:34:56 16:39:38 32° 264° (W) 16:44:23 435.225
AO-7 02 Jul 16:39:09 16:47:13 57° 66° (ENE) 16:55:21 29.400- 29.500
SWISSCUBE 02 Jul 16:58:18 17:03:07 83° 284° (WNW) 17:07:54 437.505
SO-50 02 Jul 17:03:31 17:08:23 65° 304° (NW) 17:13:14 436.795
KKS-1 02 Jul 17:06:29 17:08:07 12° 91° (E) 17:09:44 437.445
BEESAT 02 Jul 17:23:14 17:27:53 51° 288° (WNW) 17:32:30 436.000
MOZHAYETS 4 02 Jul 17:25:46 17:29:07 20° 93° (E) 17:32:27
ITUPSAT 1 02 Jul 17:27:08 17:31:46 48° 288° (WNW) 17:36:21 437.325
HORYU 2 02 Jul 17:28:20 17:31:23 18° 65° (ENE) 17:34:27 437.375
RS-15 02 Jul 17:50:46 17:59:16 21° 0° (N) 18:07:56 29.354- 29.394
ITAMSAT 1 02 Jul 17:57:41 18:00:39 15° 269° (W) 18:03:37 435.822/435.867
AIST 1 02 Jul 18:00:56 18:04:58 40° 92° (E) 18:09:00
NOAA 15 02 Jul 18:05:18 18:06:57 11° 58° (ENE) 18:08:36 137.62
GONETS M04 02 Jul 18:05:44 18:09:36 14° 75° (ENE) 18:13:28
Cosmos 2504 02 Jul 18:23:20 18:24:48 10° 306° (NW) 18:26:15 435.465 / 435.565
AO-7 02 Jul 18:33:08 18:40:18 32° 264° (W) 18:47:33 29.400- 29.500
KKS-1 02 Jul 18:40:39 18:45:04 62° 286° (WNW) 18:49:27 437.445
SO-50 02 Jul 18:47:55 18:49:47 12° 324° (NW) 18:51:39 436.795
Cosmos 2499 02 Jul 18:54:24 19:00:20 21° 79° (ENE) 19:06:25 435.465 / 435.565
Cubesat XI-IV 02 Jul 18:54:53 18:59:05 24° 65° (ENE) 19:03:19 437.490
STARS 02 Jul 19:01:04 19:05:29 74° 285° (WNW) 19:09:53 437.465
MOZHAYETS 4 02 Jul 19:02:06 19:06:26 40° 289° (WNW) 19:10:43
HORYU 2 02 Jul 19:03:26 19:07:37 41° 261° (W) 19:11:51 437.375
CUBESAT XI-V 02 Jul 19:04:31 19:08:19 25° 95° (E) 19:12:05 437.345
NOAA 18 02 Jul 19:22:57 19:28:10 48° 70° (ENE) 19:33:27 137.9125
CUTE-I 02 Jul 19:26:45 19:31:50 46° 70° (ENE) 19:36:58 437.470
BRITE-PL 02 Jul 19:29:04 19:33:56 63° 75° (ENE) 19:38:26 437.365/2234.400
LilacSat-2 02 Jul 19:36:18 19:39:55 44° 73° (ENE) 19:43:35 437.200
CUSAT 1 02 Jul 19:38:53 19:42:00 44° 76° (ENE) 19:44:39 437.405
AIST 1 02 Jul 19:40:07 19:42:45 16° 289° (WNW) 19:45:24
NOAA 15 02 Jul 19:40:36 19:45:53 86° 77° (ENE) 19:51:12 137.62
GOMX 1 02 Jul 19:41:22 19:45:26 35° 72° (ENE) 19:49:20 467.674
GONETS M04 02 Jul 19:56:13 20:04:53 79° 95° (E) 20:13:35
RS-15 02 Jul 20:06:10 20:17:06 35° 35° (NE) 20:28:00 29.354- 29.394
DOVE 4 02 Jul 20:19:49 20:23:46 39° 72° (ENE) 20:27:39 437.250
CANX-2 02 Jul 20:25:46 20:27:53 14° 64° (ENE) 20:30:01 2200.000
STRAND 1 02 Jul 20:32:48 20:35:35 14° 91° (E) 20:38:20 437.568
Cubesat XI-IV 02 Jul 20:33:47 20:38:52 44° 261° (W) 20:43:59 437.490
SEEDS 02 Jul 20:41:14 20:43:00 12° 64° (ENE) 20:44:45 437.485
DANDE 02 Jul 20:41:30 20:45:53 78° 262° (W) 20:49:10 436.750
CUBESAT XI-V 02 Jul 20:41:39 20:45:41 31° 291° (WNW) 20:49:42 437.345
Cosmos 2499 02 Jul 20:43:55 20:52:20 79° 278° (W) 21:01:16 435.465 / 435.565
CUTE 1.7 + AOD 2 02 Jul 20:43:56 20:46:54 19° 67° (ENE) 20:49:53 437.475
CINEMA 3 02 Jul 20:44:31 20:47:36 20° 67° (ENE) 20:50:42 145.822/145.860
AO-85 02 Jul 20:56:45 20:59:52 16° 108° (ESE) 21:02:57 145.980
NOAA 18 02 Jul 21:04:54 21:09:03 22° 266° (W) 21:13:15 137.9125
HO-68 02 Jul 21:05:57 21:12:50 54° 68° (ENE) 21:19:47 435.675
AAUSAT CUBESAT 2 02 Jul 21:07:28 21:09:30 13° 64° (ENE) 21:11:31 437.432
CUTE-I 02 Jul 21:08:01 21:12:05 22° 267° (W) 21:16:11 437.470
BRITE-PL 02 Jul 21:10:32 21:12:41 13° 268° (W) 21:14:47 437.365/2234.400
LilacSat-2 02 Jul 21:13:07 21:14:29 12° 269° (W) 21:15:49 437.200
GOMX 1 02 Jul 21:20:22 21:23:37 19° 266° (W) 21:26:46 467.674
NOAA 15 02 Jul 21:25:03 21:26:18 11° 271° (W) 21:27:33 137.62
COMPASS 1 02 Jul 21:43:44 21:47:41 41° 72° (ENE) 21:51:41 437.405
CUBEBUG 2 02 Jul 21:48:00 21:51:42 31° 70° (ENE) 21:55:29 437.445
AUBIESAT-1 02 Jul 21:51:53 21:54:19 19° 63° (ENE) 21:56:48 437.475
ZACube-1 02 Jul 21:55:51 21:58:41 18° 66° (ENE) 22:01:34 437.345
GONETS M04 02 Jul 21:56:20 22:02:40 22° 295° (WNW) 22:09:03
Oscar 11 02 Jul 21:56:46 21:59:54 20° 67° (ENE) 22:03:02 145.826/435.025
CANX-2 02 Jul 21:59:04 22:03:15 55° 260° (W) 22:07:31 2200.000
DOVE 4 02 Jul 21:59:04 22:01:39 16° 267° (W) 22:04:12 437.250
STRAND 1 02 Jul 22:10:04 22:15:11 64° 287° (WNW) 22:20:15 437.568
FUNcube-1 02 Jul 22:10:17 22:13:40 23° 68° (ENE) 22:17:06 145.935
SEEDS 02 Jul 22:13:58 22:18:10 60° 260° (W) 22:22:24 437.485
DELFI C3 02 Jul 22:17:15 22:19:15 14° 65° (ENE) 22:21:16 145.870
CUTE 1.7 + AOD 2 02 Jul 22:18:27 22:22:26 38° 262° (W) 22:26:28 437.475
RS-15 02 Jul 22:18:50 22:31:15 87° 241° (WSW) 22:43:30 29.354- 29.394
CINEMA 3 02 Jul 22:20:54 22:24:34 30° 264° (W) 22:28:17 145.822/145.860
UWE-3 02 Jul 22:25:28 22:29:34 55° 74° (ENE) 22:33:49 435.000/436.395/437.385
M-CUBED/EXP-1 PRIME 02 Jul 22:34:14 22:37:29 85° 252° (WSW) 22:40:48 437.505
AO-85 02 Jul 22:34:24 22:39:50 74° 303° (WNW) 22:45:05 145.980
AAUSAT CUBESAT 2 02 Jul 22:40:24 22:44:30 53° 260° (W) 22:48:38 437.432
Cosmos 2499 02 Jul 22:42:00 22:47:02 16° 300° (WNW) 22:52:13 435.465 / 435.565
HO-68 02 Jul 22:54:50 23:00:49 29° 265° (W) 23:06:51 435.675
COMPASS 1 02 Jul 23:20:51 23:23:26 16° 268° (W) 23:26:00 437.405
PRISM 02 Jul 23:21:16 23:25:18 64° 286° (WNW) 23:29:19 437.425
CUBEBUG 2 02 Jul 23:25:10 23:28:22 21° 267° (W) 23:31:38 437.445
AUBIESAT-1 02 Jul 23:26:12 23:28:45 20° 260° (W) 23:31:19 437.475
ZACube-1 02 Jul 23:30:39 23:34:38 40° 262° (W) 23:38:44 437.345
Oscar 11 02 Jul 23:31:46 23:35:46 36° 263° (W) 23:39:49 145.826/435.025
FUNcube-1 02 Jul 23:46:04 23:49:45 29° 264° (W) 23:53:32 145.935
TIGRISAT 02 Jul 23:49:46 23:52:54 17° 92° (E) 23:56:01 435.000
DELFI C3 02 Jul 23:49:47 23:53:41 48° 261° (W) 23:57:37 145.870
UNISAT 6 02 Jul 23:56:04 23:59:41 22° 94° (E) 00:03:17 437.425
SO-50 02 Jul 23:56:35 23:59:14 15° 39° (NE) 00:01:51 436.795
HUMSAT D 03 Jul 00:03:57 00:08:08 77° 259° (W) 00:12:24 437.325/437.525
UWE-3 03 Jul 00:04:51 00:06:25 12° 270° (W) 00:08:01 435.000/436.395/437.385
YUBILEINY 03 Jul 00:09:08 00:16:34 29° 69° (ENE) 00:23:59 435.215
VELOX 1 03 Jul 00:13:38 00:16:11 15° 64° (ENE) 00:18:43 145.980
AO-85 03 Jul 00:18:15 00:21:09 14° 321° (NW) 00:23:59 145.980
Cosmos 2504 03 Jul 00:25:54 00:27:21 10° 54° (NE) 00:28:47 435.465 / 435.565
UKube-1 03 Jul 00:30:29 00:32:46 14° 63° (ENE) 00:35:03 .
RS-15 03 Jul 00:33:31 00:41:57 22° 261° (W) 00:50:21 29.354- 29.394
ANTELSAT 03 Jul 00:34:57 00:39:34 55° 100° (E) 00:44:10 437.575/2403.000
NANOSAT C BR1 03 Jul 00:48:36 00:49:19 10° 90° (E) 00:50:01 145.865
50 SAT 03 Jul 00:52:34 00:56:01 38° 72° (ENE) 00:59:30 437.505
QB50P1 03 Jul 00:53:07 00:55:06 13° 91° (E) 00:57:05 145.935-145.965
AISAT 03 Jul 00:53:11 00:57:18 41° 72° (ENE) 01:01:26 437.250
POPSAT HIP 1 03 Jul 00:56:32 00:58:48 14° 92° (E) 01:01:04 437.405
DX 1 03 Jul 00:57:10 01:01:04 33° 70° (ENE) 01:04:59 434.975-435.025
DUCHIFAT 1 03 Jul 01:05:11 01:07:49 16° 93° (E) 01:10:25 145.980
ESTCUBE 1 03 Jul 01:07:29 01:12:02 88° 265° (W) 01:16:36 437.505/2401.250
QB50P2 03 Jul 01:09:13 01:12:30 21° 94° (E) 01:15:46 145.880/145.840
POLYITAN 1 03 Jul 01:11:48 01:15:09 22° 95° (E) 01:18:28 437.675
Cosmos 2491 03 Jul 01:19:48 01:27:45 41° 87° (E) 01:35:41 435.465 / 435.565
TIGRISAT 03 Jul 01:25:18 01:29:47 46° 288° (WNW) 01:34:16 435.000
CUBEBUG 1 03 Jul 01:27:32 01:31:53 79° 257° (WSW) 01:36:14 437.445
UNISAT 6 03 Jul 01:32:09 01:36:28 37° 289° (WNW) 01:40:48 437.425
